This demonstration page uses our WeatherBlox Daily Observations layout. Learn more.

Left ArrowRight Arrow

Hourly Observations for December 2, 2019

Temp ( °F °C ) Dew Point ( °F °C ) Humidity (%) Winds ( mph kmh ) Pressure ( in mb ) Visibility ( mi km ) Precip ( " mm )
12:56 am 00:56 Clear 20 -6.7 18 -7.8 92 92 WNW 7 11 30.27 1025 10 16 0.00 0.00
1:56 am 01:56 Clear 21 -6.1 19 -7.2 92 92 W 7 11 30.28 1025 10 16 0.00 0.00
2:56 am 02:56 Clear 21 -6.1 18 -7.8 88 88 WNW 5 7 30.27 1025 10 16 0.00 0.00
3:56 am 03:56 Clear 19 -7.2 17 -8.3 92 92 Calm 30.26 1025 10 16 0.00 0.00
4:56 am 04:56 Clear 18 -7.8 15 -9.4 88 88 WSW 3 6 30.26 1025 10 16 0.00 0.00
5:56 am 05:56 Clear 18 -7.8 16 -8.9 92 92 SW 5 7 30.25 1024 10 16 0.00 0.00
6:56 am 06:56 Clear 19 -7.2 17 -8.3 92 92 SW 7 11 30.24 1024 10 16 0.00 0.00
7:56 am 07:56 Sunny 18 -7.8 17 -8.3 96 96 SW 8 13 30.24 1024 10 16 0.00 0.00
8:56 am 08:56 Sunny 24 -4.4 19 -7.2 81 81 SW 6 9 30.23 1024 10 16 0.00 0.00
9:56 am 09:56 Sunny 30 -1.1 21 -6.1 69 69 SW 10 17 30.22 1023 10 16 0.00 0.00
10:56 am 10:56 Sunny 35 1.7 22 -5.6 59 59 SW 14 22 30.19 1022 10 16 0.00 0.00
11:56 am 11:56 Sunny 36 2.2 22 -5.6 57 57 SW 15 24 30.15 1021 10 16 0.00 0.00
12:56 pm 12:56 Sunny 38 3.3 23 -5 55 55 SW 13 20 30.12 1020 10 16 0.00 0.00
1:56 pm 13:56 Sunny 39 3.9 26 -3.3 60 60 SSW 12 19 30.08 1019 10 16 0.00 0.00
2:56 pm 14:56 Sunny 39 3.9 27 -2.8 62 62 WSW 7 11 30.07 1018 10 16 0.00 0.00
3:56 pm 15:56 Sunny 42 5.6 27 -2.8 55 55 WSW 9 15 30.06 1018 10 16 0.00 0.00
4:56 pm 16:56 Sunny 38 3.3 28 -2.2 68 68 WNW 3 6 30.08 1019 10 16 0.00 0.00
5:56 pm 17:56 Clear 35 1.7 27 -2.8 72 72 SSW 9 15 30.06 1018 10 16 0.00 0.00
6:56 pm 18:56 Clear 36 2.2 27 -2.8 70 70 SW 9 15 30.04 1017 10 16 0.00 0.00
7:56 pm 19:56 Clear 34 1.1 27 -2.8 76 76 SSW 7 11 30.05 1018 10 16 0.00 0.00
8:56 pm 20:56 Clear 36 2.2 28 -2.2 73 73 W 8 13 30.03 1017 10 16 0.00 0.00
9:56 pm 21:56 Clear 36 2.2 28 -2.2 73 73 W 6 9 30.01 1016 10 16 0.00 0.00
10:56 pm 22:56 Clear 32 0 26 -3.3 79 79 WNW 10 17 29.99 1016 10 16 0.00 0.00
11:56 pm 23:56 Clear 31 -0.6 26 -3.3 82 82 WNW 7 11 29.98 1015 10 16 0.00 0.00

Powered by AerisWeather